User: anonymous   Login
Location: Albany
(35.0000°S, 118.0000°E)
Time: 14:45:47
(UTC-04:00)
Language:

Cosmos 2227 Rocket - Orbit

View from above orbital plane
View from above orbital plane
View from above satellite
View from above satellite

Ground track
Ground track

The orbit data is extracted from the following two-line orbital elements,

1 22285U 92093B   17289.54231331  .00000271  00000-0  16423-3 0  9990
2 22285  71.0216 317.7094 0006269 291.4019  68.6434 14.15016414279701
Epoch (UTC): 16 October 2017 13:00:55
Eccentricity: 0.0006269
inclination: 71.0216°
perigee height: 838 km
apogee height: 847 km
right ascension of ascending node: 317.7094°
argument of perigee: 291.4019°
revolutions per day: 14.15016414
mean anomaly at epoch: 68.6434°
orbit number at epoch: 27970

The dashed part of the orbit path shows where the satellite is in the earth's shadow,  

DLR